Location: Unspecified
(47.6579°N, 23.5637°E)
Time: 03:40:15
(UTC+02:00)

Envisat - Pass Details

Date: 01 December 2021
Orbit: 764 x 766 km, 98.2° (Epoch: 17 January)

Event Time Altitude Azimuth Distance (km) Brightness Sun altitude
Rises 04:23:16 0° 26° (NNE) 3,244 6.6 -34.5°
Reaches altitude 10° 04:26:07 10° 42° (NE) 2,312 5.9 -34.1°
Maximum altitude 04:29:59 21° 91° (E) 1,654 5.3 -33.4°
Drops below altitude 10° 04:33:49 10° 141° (SE) 2,298 5.8 -32.8°
Sets 04:36:38 0° 156° (SSE) 3,218 6.5 -32.3°
